Location: Betpouey
(42.8833°N, 0.0333°E)
Time: 08:11:36
(UTC+00:00)

Sich 1 - Pass Details

Date: 01 December 2020
Orbit: 593 x 626 km, 82.5° (Epoch: 17 January)

Event Time Altitude Azimuth Distance (km) Brightness Sun altitude
Rises 17:02:27 0° 350° (N) 2,894 6.4 -6.7°
Reaches altitude 10° 17:04:42 10° 349° (NNW) 1,979 5.5 -7.1°
Maximum altitude 17:09:04 75° 264° (W) 633 3.3 -7.8°
Drops below altitude 10° 17:13:21 10° 179° (S) 1,943 5.9 -8.5°
Sets 17:15:33 0° 178° (S) 2,836 6.7 -8.9°
